| time (UTC) | temp C | wind direction | speed KPH | gust KPH | rain 1hr cm | rain 24hr cm | rain mn cm | humidity % | barometer mb |
| 20260507111050 | 10 | 279 | 1.6 | 9.7 | 0.00 | 0.58 | 0.08 | 80 | 1012.6 |
| 20260507110547 | 10 | 294 | 3.2 | 8.0 | 0.00 | 0.58 | 0.08 | 80 | 1012.3 |
| 20260507110053 | 10 | 350 | 1.6 | 8.0 | 0.00 | 0.58 | 0.08 | 80 | 1012.4 |
| 20260507105548 | 10 | 0 | 1.6 | 8.0 | 0.00 | 0.58 | 0.08 | 80 | 1012.3 |
| 20260507105049 | 10 | 4 | 0.0 | 12.9 | 0.00 | 0.58 | 0.08 | 81 | 1012.1 |
| 20260507104555 | 10 | 352 | 1.6 | 12.9 | 0.00 | 0.58 | 0.08 | 81 | 1012.1 |
| 20260507104048 | 10 | 357 | 3.2 | 12.9 | 0.00 | 0.58 | 0.08 | 83 | 1012.2 |
| 20260507103549 | 10 | 283 | 1.6 | 6.4 | 0.00 | 0.58 | 0.08 | 84 | 1012.1 |
| 20260507103055 | 10 | 350 | 1.6 | 6.4 | 0.00 | 0.58 | 0.08 | 85 | 1012.1 |
| 20260507102544 | 10 | 338 | 0.0 | 9.7 | 0.00 | 0.58 | 0.08 | 85 | 1012.1 |
| 20260507102049 | 10 | 0 | 0.0 | 12.9 | 0.00 | 0.58 | 0.08 | 86 | 1011.9 |
| 20260507101607 | 10 | 335 | 1.6 | 12.9 | 0.00 | 0.58 | 0.08 | 86 | 1011.9 |
| 20260507101050 | 10 | 344 | 3.2 | 12.9 | 0.00 | 0.58 | 0.08 | 87 | 1011.7 |
| 20260507100548 | 11 | 18 | 3.2 | 6.4 | 0.00 | 0.58 | 0.08 | 88 | 1011.6 |
| 20260507100057 | 11 | 18 | 0.0 | 6.4 | 0.00 | 0.58 | 0.08 | 88 | 1011.7 |
| 20260507095548 | 11 | 18 | 0.0 | 6.4 | 0.00 | 0.58 | 0.08 | 88 | 1011.6 |
| 20260507095047 | 11 | 311 | 1.6 | 4.8 | 0.00 | 0.58 | 0.08 | 88 | 1011.7 |
| 20260507094555 | 11 | 311 | 1.6 | 3.2 | 0.00 | 0.58 | 0.08 | 88 | 1011.5 |
| 20260507094048 | 11 | 311 | 0.0 | 1.6 | 0.00 | 0.58 | 0.08 | 88 | 1011.7 |
| 20260507093547 | 11 | 0 | 0.0 | 1.6 | 0.00 | 0.58 | 0.08 | 88 | 1011.7 |
| 20260507093059 | 11 | 0 | 0.0 | 1.6 | 0.00 | 0.58 | 0.08 | 88 | 1011.6 |
| 20260507092548 | 11 | 0 | 0.0 | 1.6 | 0.00 | 0.58 | 0.08 | 88 | 1011.6 |
| 20260507092048 | 11 | 0 | 0.0 | 3.2 | 0.00 | 0.58 | 0.08 | 88 | 1011.8 |
| 20260507091559 | 11 | 0 | 0.0 | 3.2 | 0.00 | 0.58 | 0.08 | 88 | 1011.7 |
| 20260507091049 | 11 | 0 | 0.0 | 3.2 | 0.00 | 0.58 | 0.08 | 88 | 1011.7 |
| 20260507090549 | 11 | 0 | 0.0 | 3.2 | 0.00 | 0.58 | 0.08 | 88 | 1011.6 |
| 20260507090113 | 11 | 0 | 0.0 | 4.8 | 0.00 | 0.58 | 0.08 | 88 | 1011.5 |
| 20260507085548 | 11 | 0 | 0.0 | 6.4 | 0.00 | 0.58 | 0.08 | 88 | 1011.5 |
| 20260507085045 | 11 | 311 | 1.6 | 6.4 | 0.00 | 0.58 | 0.08 | 88 | 1011.4 |
| 20260507084554 | 11 | 0 | 0.0 | 6.4 | 0.00 | 0.58 | 0.08 | 88 | 1011.3 |
| 20260507084048 | 11 | 332 | 1.6 | 6.4 | 0.00 | 0.58 | 0.08 | 88 | 1011.3 |
| 20260507083545 | 11 | 0 | 1.6 | 8.0 | 0.00 | 0.58 | 0.08 | 88 | 1011.3 |
| 20260507083100 | 11 | 358 | 1.6 | 8.0 | 0.00 | 0.58 | 0.08 | 88 | 1011.2 |
| 20260507082551 | 11 | 14 | 1.6 | 4.8 | 0.00 | 0.58 | 0.08 | 88 | 1011.0 |
| 20260507082048 | 11 | 349 | 0.0 | 3.2 | 0.00 | 0.58 | 0.08 | 88 | 1010.9 |
| 20260507081602 | 11 | 0 | 1.6 | 6.4 | 0.00 | 0.58 | 0.08 | 88 | 1010.9 |
| 20260507081048 | 11 | 349 | 0.0 | 8.0 | 0.00 | 0.58 | 0.08 | 88 | 1010.8 |
| 20260507080548 | 11 | 2 | 1.6 | 11.3 | 0.00 | 0.58 | 0.08 | 88 | 1010.7 |
| 20260507080050 | 11 | 357 | 3.2 | 11.3 | 0.00 | 0.58 | 0.08 | 88 | 1010.7 |
| 20260507075549 | 11 | 359 | 4.8 | 9.7 | 0.00 | 0.58 | 0.08 | 88 | 1010.8 |
| 20260507075048 | 11 | 322 | 4.8 | 11.3 | 0.00 | 0.58 | 0.08 | 88 | 1010.8 |
| 20260507074559 | 11 | 357 | 4.8 | 11.3 | 0.00 | 0.58 | 0.08 | 88 | 1010.8 |
| 20260507074044 | 11 | 24 | 3.2 | 14.5 | 0.00 | 0.58 | 0.08 | 88 | 1010.7 |
| 20260507073545 | 11 | 346 | 4.8 | 14.5 | 0.00 | 0.58 | 0.08 | 88 | 1010.7 |
| 20260507073051 | 11 | 8 | 4.8 | 14.5 | 0.00 | 0.58 | 0.08 | 88 | 1010.8 |
| 20260507072546 | 11 | 18 | 6.4 | 14.5 | 0.03 | 0.58 | 0.08 | 88 | 1010.9 |
| 20260507072046 | 11 | 355 | 3.2 | 14.5 | 0.03 | 0.58 | 0.08 | 88 | 1010.9 |
| 20260507071553 | 11 | 357 | 6.4 | 14.5 | 0.03 | 0.58 | 0.08 | 88 | 1011.1 |
| 20260507071047 | 11 | 7 | 4.8 | 12.9 | 0.05 | 0.58 | 0.08 | 88 | 1011.1 |
| 20260507070547 | 11 | 200 | 3.2 | 9.7 | 0.05 | 0.58 | 0.08 | 88 | 1011.3 |
| 20260507070057 | 11 | 200 | 3.2 | 9.7 | 0.05 | 0.58 | 0.08 | 88 | 1011.3 |
| 20260507065547 | 11 | 200 | 3.2 | 8.0 | 0.05 | 0.58 | 0.08 | 87 | 1011.2 |
| 20260507065045 | 11 | 200 | 1.6 | 8.0 | 0.05 | 0.58 | 0.08 | 87 | 1011.1 |
| 20260507064607 | 11 | 200 | 1.6 | 9.7 | 0.05 | 0.58 | 0.08 | 87 | 1011.1 |
| 20260507064048 | 11 | 56 | 3.2 | 9.7 | 0.05 | 0.58 | 0.08 | 86 | 1011.1 |
| 20260507063547 | 11 | 350 | 4.8 | 14.5 | 0.05 | 0.58 | 0.08 | 86 | 1011.3 |
| 20260507063103 | 12 | 352 | 4.8 | 14.5 | 0.05 | 0.58 | 0.08 | 85 | 1011.3 |
| 20260507062546 | 12 | 355 | 8.0 | 14.5 | 0.03 | 0.56 | 0.05 | 85 | 1011.2 |
| 20260507062046 | 12 | 11 | 6.4 | 17.7 | 0.03 | 0.56 | 0.05 | 85 | 1011.4 |
| 20260507061557 | 12 | 354 | 6.4 | 17.7 | 0.03 | 0.56 | 0.05 | 86 | 1011.5 |
| 20260507061045 | 12 | 18 | 4.8 | 14.5 | 0.00 | 0.53 | 0.03 | 86 | 1011.3 |
| 20260507060547 | 12 | 276 | 6.4 | 14.5 | 0.00 | 0.53 | 0.03 | 86 | 1011.5 |
| 20260507060051 | 12 | 356 | 6.4 | 14.5 | 0.00 | 0.53 | 0.03 | 87 | 1011.3 |
| 20260507055546 | 12 | 15 | 3.2 | 12.9 | 0.00 | 0.53 | 0.03 | 87 | 1011.2 |
| 20260507055046 | 12 | 315 | 3.2 | 12.9 | 0.00 | 0.53 | 0.03 | 88 | 1011.3 |
| 20260507054608 | 12 | 7 | 6.4 | 11.3 | 0.00 | 0.53 | 0.03 | 88 | 1011.1 |
| 20260507054045 | 12 | 21 | 4.8 | 9.7 | 0.00 | 0.53 | 0.03 | 88 | 1011.1 |
| 20260507053548 | 12 | 344 | 3.2 | 8.0 | 0.00 | 0.53 | 0.03 | 88 | 1011.3 |
| 20260507053052 | 12 | 14 | 1.6 | 8.0 | 0.00 | 0.53 | 0.03 | 88 | 1011.2 |
| 20260507052550 | 12 | 346 | 0.0 | 4.8 | 0.00 | 0.53 | 0.03 | 88 | 1011.2 |
| 20260507052048 | 12 | 346 | 1.6 | 9.7 | 0.00 | 0.53 | 0.03 | 87 | 1011.1 |
| 20260507051558 | 12 | 346 | 1.6 | 9.7 | 0.00 | 0.53 | 0.03 | 87 | 1011.1 |
| 20260507051046 | 12 | 8 | 3.2 | 9.7 | 0.00 | 0.53 | 0.03 | 87 | 1011.4 |
| 20260507050546 | 12 | 313 | 3.2 | 9.7 | 0.00 | 0.53 | 0.03 | 87 | 1011.7 |
| 20260507050053 | 12 | 343 | 1.6 | 9.7 | 0.03 | 0.53 | 0.03 | 88 | 1011.5 |
| 20260507045549 | 12 | 0 | 0.0 | 9.7 | 0.03 | 0.53 | 0.03 | 88 | 1011.3 |
| 20260507045049 | 12 | 0 | 1.6 | 11.3 | 0.03 | 0.53 | 0.03 | 88 | 1011.6 |
| 20260507044555 | 13 | 330 | 1.6 | 11.3 | 0.05 | 0.53 | 0.03 | 88 | 1011.6 |
| 20260507044046 | 13 | 328 | 3.2 | 11.3 | 0.05 | 0.53 | 0.03 | 88 | 1011.5 |
| 20260507043547 | 13 | 315 | 1.6 | 11.3 | 0.05 | 0.53 | 0.03 | 88 | 1011.6 |
| 20260507043052 | 13 | 334 | 3.2 | 9.7 | 0.05 | 0.53 | 0.03 | 88 | 1011.1 |
| 20260507042548 | 13 | 316 | 1.6 | 9.7 | 0.05 | 0.53 | 0.03 | 88 | 1011.1 |
| 20260507042045 | 13 | 0 | 1.6 | 6.4 | 0.05 | 0.53 | 0.03 | 88 | 1010.9 |
| 20260507041602 | 13 | 358 | 3.2 | 11.3 | 0.05 | 0.53 | 0.03 | 87 | 1010.6 |
| 20260507041047 | 13 | 0 | 0.0 | 11.3 | 0.08 | 0.53 | 0.03 | 87 | 1011.0 |
| 20260507040547 | 13 | 355 | 3.2 | 8.0 | 0.08 | 0.53 | 0.03 | 87 | 1011.2 |
| 20260507040056 | 13 | 2 | 0.0 | 6.4 | 0.05 | 0.51 | 0.00 | 87 | 1010.8 |
| 20260507035547 | 13 | 0 | 0.0 | 4.8 | 0.05 | 0.51 | 0.51 | 87 | 1011.1 |
| 20260507035047 | 14 | 314 | 0.0 | 6.4 | 0.05 | 0.51 | 0.51 | 86 | 1011.1 |
| 20260507034555 | 14 | 30 | 1.6 | 9.7 | 0.03 | 0.48 | 0.48 | 86 | 1011.0 |
| 20260507034047 | 14 | 30 | 3.2 | 11.3 | 0.03 | 0.48 | 0.48 | 86 | 1010.7 |
| 20260507033547 | 14 | 350 | 1.6 | 12.9 | 0.03 | 0.48 | 0.48 | 85 | 1010.6 |
| 20260507033052 | 14 | 322 | 3.2 | 19.3 | 0.03 | 0.48 | 0.48 | 85 | 1010.6 |
| 20260507032548 | 14 | 15 | 6.4 | 20.9 | 0.03 | 0.48 | 0.48 | 85 | 1010.3 |
| 20260507032048 | 15 | 26 | 6.4 | 20.9 | 0.03 | 0.48 | 0.48 | 85 | 1010.4 |
| 20260507031548 | 15 | 360 | 8.0 | 20.9 | 0.03 | 0.48 | 0.48 | 84 | 1010.6 |
| 20260507031046 | 15 | 39 | 6.4 | 20.9 | 0.00 | 0.46 | 0.46 | 83 | 1010.9 |
| 20260507030547 | 15 | 319 | 9.7 | 20.9 | 0.00 | 0.46 | 0.46 | 83 | 1010.7 |
| 20260507025545 | 15 | 16 | 8.0 | 17.7 | 0.00 | 0.46 | 0.46 | 84 | 1010.2 |
| 20260507025046 | 15 | 333 | 8.0 | 17.7 | 0.00 | 0.46 | 0.46 | 84 | 1010.1 |
| 20260507024551 | 15 | 36 | 3.2 | 9.7 | 0.03 | 0.46 | 0.46 | 85 | 1010.0 |
| 20260507024045 | 15 | 3 | 1.6 | 8.0 | 0.03 | 0.46 | 0.46 | 84 | 1010.4 |
| 20260507023545 | 15 | 348 | 3.2 | 8.0 | 0.03 | 0.46 | 0.46 | 84 | 1010.6 |
| 20260507023108 | 15 | 1 | 0.0 | 8.0 | 0.03 | 0.46 | 0.46 | 84 | 1010.4 |
| 20260507022548 | 15 | 0 | 1.6 | 8.0 | 0.03 | 0.46 | 0.46 | 84 | 1010.3 |
| 20260507022047 | 15 | 18 | 0.0 | 4.8 | 0.03 | 0.46 | 0.46 | 84 | 1010.3 |
| 20260507021554 | 15 | 0 | 0.0 | 4.8 | 0.03 | 0.46 | 0.46 | 83 | 1010.2 |
| 20260507021049 | 16 | 0 | 0.0 | 4.8 | 0.03 | 0.46 | 0.46 | 83 | 1010.2 |
| 20260507020547 | 16 | 319 | 0.0 | 8.0 | 0.03 | 0.46 | 0.46 | 83 | 1010.3 |
| 20260507020052 | 16 | 39 | 1.6 | 9.7 | 0.03 | 0.46 | 0.46 | 83 | 1010.2 |
| 20260507015546 | 16 | 292 | 3.2 | 9.7 | 0.03 | 0.46 | 0.46 | 83 | 1010.1 |
| 20260507015048 | 16 | 31 | 1.6 | 11.3 | 0.03 | 0.46 | 0.46 | 83 | 1010.0 |
| 20260507014606 | 16 | 251 | 3.2 | 11.3 | 0.00 | 0.43 | 0.43 | 83 | 1009.9 |
| 20260507014046 | 16 | 333 | 3.2 | 14.5 | 0.00 | 0.43 | 0.43 | 83 | 1009.9 |
| 20260507013548 | 16 | 13 | 1.6 | 14.5 | 0.00 | 0.43 | 0.43 | 83 | 1010.0 |
| 20260507013110 | 16 | 261 | 4.8 | 14.5 | 0.00 | 0.43 | 0.43 | 83 | 1010.2 |
| 20260507012547 | 16 | 280 | 4.8 | 14.5 | 0.00 | 0.43 | 0.43 | 82 | 1010.3 |
| 20260507012045 | 16 | 325 | 4.8 | 12.9 | 0.03 | 0.43 | 0.43 | 82 | 1010.1 |
| 20260507011552 | 16 | 309 | 3.2 | 16.1 | 0.03 | 0.43 | 0.43 | 82 | 1010.1 |
| 20260507011047 | 16 | 357 | 3.2 | 16.1 | 0.03 | 0.43 | 0.43 | 82 | 1010.2 |
| 20260507010545 | 17 | 293 | 4.8 | 17.7 | 0.03 | 0.43 | 0.43 | 82 | 1010.1 |
| 20260507010050 | 17 | 292 | 4.8 | 17.7 | 0.03 | 0.43 | 0.43 | 83 | 1010.3 |
| 20260507005546 | 17 | 289 | 3.2 | 17.7 | 0.03 | 0.43 | 0.43 | 83 | 1010.2 |
| 20260507005046 | 17 | 353 | 3.2 | 27.4 | 0.03 | 0.43 | 0.43 | 84 | 1010.1 |
| 20260507004550 | 17 | 269 | 4.8 | 27.4 | 0.03 | 0.43 | 0.43 | 86 | 1010.1 |
| 20260507004048 | 18 | 34 | 8.0 | 27.4 | 0.03 | 0.43 | 0.43 | 87 | 1010.1 |
| 20260507003547 | 18 | 276 | 4.8 | 12.9 | 0.03 | 0.43 | 0.43 | 87 | 1009.8 |
| 20260507003051 | 18 | 297 | 1.6 | 17.7 | 0.03 | 0.43 | 0.43 | 87 | 1009.6 |
| 20260507002548 | 18 | 0 | 6.4 | 17.7 | 0.03 | 0.43 | 0.43 | 87 | 1009.6 |
| 20260507002047 | 18 | 284 | 3.2 | 8.0 | 0.00 | 0.41 | 0.41 | 87 | 1009.7 |
| 20260507001609 | 18 | 273 | 3.2 | 11.3 | 0.00 | 0.41 | 0.41 | 86 | 1009.4 |
| 20260507001049 | 18 | 274 | 3.2 | 11.3 | 0.00 | 0.41 | 0.41 | 86 | 1009.4 |
| 20260507000546 | 19 | 277 | 1.6 | 6.4 | 0.00 | 0.41 | 0.41 | 85 | 1009.3 |
| 20260507000051 | 19 | 0 | 1.6 | 6.4 | 0.00 | 0.41 | 0.41 | 85 | 1009.3 |
| 20260506235548 | 19 | 348 | 3.2 | 6.4 | 0.00 | 0.41 | 0.41 | 85 | 1009.1 |
| 20260506235045 | 19 | 243 | 3.2 | 8.0 | 0.00 | 0.41 | 0.41 | 84 | 1009.0 |
| 20260506234552 | 19 | 187 | 3.2 | 8.0 | 0.00 | 0.41 | 0.41 | 83 | 1008.7 |
| 20260506234050 | 19 | 222 | 3.2 | 11.3 | 0.00 | 0.41 | 0.41 | 83 | 1008.6 |
| 20260506233548 | 19 | 195 | 3.2 | 14.5 | 0.00 | 0.41 | 0.41 | 83 | 1008.7 |
| 20260506233059 | 19 | 229 | 4.8 | 14.5 | 0.00 | 0.41 | 0.41 | 82 | 1008.7 |
| 20260506232547 | 19 | 200 | 4.8 | 11.3 | 0.00 | 0.41 | 0.41 | 82 | 1008.7 |
| 20260506232049 | 19 | 195 | 1.6 | 8.0 | 0.00 | 0.41 | 0.41 | 82 | 1008.7 |
| 20260506231554 | 19 | 183 | 3.2 | 11.3 | 0.00 | 0.41 | 0.41 | 81 | 1008.6 |
| 20260506231048 | 20 | 195 | 3.2 | 16.1 | 0.00 | 0.41 | 0.41 | 81 | 1008.6 |
| 20260506230544 | 20 | 224 | 4.8 | 16.1 | 0.00 | 0.41 | 0.41 | 81 | 1008.6 |
| 20260506230055 | 20 | 240 | 4.8 | 14.5 | 0.00 | 0.41 | 0.41 | 81 | 1008.6 |
| 20260506225546 | 20 | 232 | 4.8 | 14.5 | 0.00 | 0.41 | 0.41 | 80 | 1008.7 |
| 20260506225048 | 20 | 250 | 4.8 | 14.5 | 0.00 | 0.41 | 0.41 | 80 | 1008.7 |
| 20260506224556 | 20 | 219 | 4.8 | 16.1 | 0.00 | 0.41 | 0.41 | 80 | 1008.8 |
| 20260506224045 | 20 | 240 | 4.8 | 16.1 | 0.00 | 0.41 | 0.41 | 80 | 1008.3 |
| 20260506223549 | 20 | 264 | 8.0 | 14.5 | 0.00 | 0.41 | 0.41 | 80 | 1008.5 |
| 20260506223104 | 20 | 222 | 6.4 | 14.5 | 0.00 | 0.41 | 0.41 | 79 | 1008.6 |
| 20260506222548 | 20 | 138 | 6.4 | 14.5 | 0.00 | 0.41 | 0.41 | 80 | 1008.6 |
| 20260506222047 | 20 | 200 | 1.6 | 8.0 | 0.00 | 0.41 | 0.41 | 81 | 1008.6 |
| 20260506221559 | 20 | 231 | 3.2 | 8.0 | 0.00 | 0.41 | 0.41 | 81 | 1008.5 |
| 20260506221047 | 20 | 0 | 1.6 | 8.0 | 0.00 | 0.41 | 0.41 | 82 | 1008.5 |
| 20260506220548 | 19 | 231 | 4.8 | 14.5 | 0.00 | 0.41 | 0.41 | 82 | 1008.7 |
| 20260506220056 | 19 | 134 | 4.8 | 14.5 | 0.00 | 0.41 | 0.41 | 82 | 1008.6 |
| 20260506215546 | 19 | 200 | 3.2 | 8.0 | 0.00 | 0.41 | 0.41 | 83 | 1008.6 |
| 20260506215047 | 19 | 0 | 0.0 | 8.0 | 0.00 | 0.41 | 0.41 | 83 | 1008.6 |
| 20260506214604 | 19 | 209 | 1.6 | 12.9 | 0.00 | 0.41 | 0.41 | 83 | 1008.4 |
| 20260506214050 | 19 | 222 | 6.4 | 12.9 | 0.00 | 0.41 | 0.41 | 82 | 1008.5 |
| 20260506213550 | 19 | 195 | 4.8 | 12.9 | 0.00 | 0.41 | 0.41 | 82 | 1008.3 |
| 20260506213053 | 20 | 217 | 4.8 | 12.9 | 0.00 | 0.41 | 0.41 | 81 | 1008.3 |
| 20260506212548 | 20 | 215 | 4.8 | 12.9 | 0.00 | 0.41 | 0.41 | 80 | 1008.1 |
| 20260506212051 | 20 | 182 | 4.8 | 16.1 | 0.00 | 0.41 | 0.41 | 80 | 1008.1 |
| 20260506211556 | 20 | 245 | 4.8 | 16.1 | 0.00 | 0.41 | 0.41 | 80 | 1008.1 |
| 20260506211047 | 20 | 211 | 8.0 | 16.1 | 0.00 | 0.41 | 0.41 | 80 | 1008.0 |
| 20260506210546 | 20 | 200 | 3.2 | 14.5 | 0.00 | 0.41 | 0.41 | 81 | 1008.0 |
| 20260506205546 | 20 | 274 | 4.8 | 12.9 | 0.00 | 0.41 | 0.41 | 80 | 1007.9 |
| 20260506205045 | 20 | 223 | 4.8 | 16.1 | 0.00 | 0.41 | 0.41 | 80 | 1007.7 |
| 20260506204552 | 20 | 236 | 4.8 | 16.1 | 0.00 | 0.41 | 0.41 | 81 | 1007.6 |
| 20260506204045 | 20 | 274 | 4.8 | 12.9 | 0.00 | 0.41 | 0.41 | 80 | 1007.8 |
| 20260506203547 | 20 | 232 | 6.4 | 11.3 | 0.00 | 0.41 | 0.41 | 80 | 1007.7 |
| 20260506203055 | 20 | 151 | 3.2 | 12.9 | 0.00 | 0.41 | 0.41 | 81 | 1007.8 |
| 20260506202551 | 20 | 236 | 3.2 | 16.1 | 0.00 | 0.41 | 0.41 | 81 | 1008.0 |
| 20260506202048 | 20 | 195 | 8.0 | 16.1 | 0.00 | 0.41 | 0.41 | 80 | 1008.0 |
| 20260506201552 | 20 | 249 | 6.4 | 14.5 | 0.00 | 0.41 | 0.41 | 80 | 1007.8 |
| 20260506201050 | 20 | 169 | 4.8 | 14.5 | 0.00 | 0.41 | 0.41 | 81 | 1007.9 |
| 20260506200548 | 19 | 236 | 6.4 | 14.5 | 0.00 | 0.41 | 0.41 | 81 | 1008.0 |
| 20260506200136 | 19 | 195 | 4.8 | 11.3 | 0.00 | 0.41 | 0.41 | 80 | 1007.8 |
| 20260506195548 | 19 | 260 | 4.8 | 14.5 | 0.00 | 0.41 | 0.41 | 80 | 1008.0 |
| 20260506195049 | 19 | 224 | 3.2 | 14.5 | 0.00 | 0.41 | 0.41 | 81 | 1008.0 |
| 20260506194603 | 19 | 212 | 8.0 | 17.7 | 0.00 | 0.41 | 0.41 | 80 | 1007.9 |
| 20260506194047 | 19 | 209 | 6.4 | 17.7 | 0.00 | 0.41 | 0.41 | 80 | 1007.9 |
| 20260506193549 | 19 | 242 | 9.7 | 17.7 | 0.00 | 0.41 | 0.41 | 79 | 1008.0 |
| 20260506193054 | 19 | 176 | 6.4 | 16.1 | 0.00 | 0.41 | 0.41 | 79 | 1007.9 |
| 20260506192548 | 19 | 209 | 8.0 | 20.9 | 0.00 | 0.41 | 0.41 | 79 | 1007.8 |
| 20260506192048 | 19 | 267 | 12.9 | 20.9 | 0.00 | 0.41 | 0.41 | 80 | 1007.9 |
| 20260506191552 | 19 | 233 | 11.3 | 20.9 | 0.00 | 0.41 | 0.41 | 80 | 1008.0 |
| 20260506191048 | 19 | 183 | 4.8 | 20.9 | 0.00 | 0.41 | 0.41 | 81 | 1008.0 |
| 20260506190546 | 19 | 200 | 9.7 | 20.9 | 0.00 | 0.41 | 0.41 | 81 | 1008.0 |
| 20260506190052 | 19 | 230 | 8.0 | 20.9 | 0.00 | 0.41 | 0.41 | 81 | 1008.0 |
| 20260506185550 | 19 | 209 | 11.3 | 24.1 | 0.00 | 0.41 | 0.41 | 81 | 1008.1 |
| 20260506185048 | 19 | 217 | 11.3 | 24.1 | 0.00 | 0.41 | 0.41 | 81 | 1008.1 |
| 20260506184553 | 19 | 225 | 9.7 | 22.5 | 0.00 | 0.41 | 0.41 | 82 | 1008.2 |
| 20260506184048 | 18 | 224 | 11.3 | 24.1 | 0.00 | 0.41 | 0.41 | 82 | 1008.1 |
| 20260506183548 | 18 | 233 | 11.3 | 24.1 | 0.00 | 0.41 | 0.41 | 82 | 1008.3 |
| 20260506183052 | 18 | 171 | 9.7 | 20.9 | 0.00 | 0.41 | 0.41 | 82 | 1008.3 |
| 20260506182548 | 18 | 242 | 8.0 | 29.0 | 0.00 | 0.41 | 0.41 | 83 | 1008.3 |
| 20260506182048 | 18 | 209 | 11.3 | 29.0 | 0.00 | 0.41 | 0.41 | 84 | 1008.4 |
| 20260506181552 | 18 | 195 | 8.0 | 25.7 | 0.00 | 0.41 | 0.41 | 84 | 1008.4 |
| 20260506181047 | 18 | 209 | 11.3 | 25.7 | 0.00 | 0.41 | 0.41 | 84 | 1008.4 |
| 20260506180547 | 18 | 182 | 8.0 | 22.5 | 0.00 | 0.41 | 0.41 | 84 | 1008.5 |
| 20260506175548 | 17 | 220 | 9.7 | 27.4 | 0.00 | 0.41 | 0.41 | 85 | 1008.7 |
| 20260506175046 | 17 | 213 | 12.9 | 24.1 | 0.00 | 0.41 | 0.41 | 85 | 1008.7 |
| 20260506174550 | 17 | 239 | 14.5 | 22.5 | 0.00 | 0.41 | 0.41 | 85 | 1008.8 |
| 20260506174048 | 17 | 174 | 11.3 | 29.0 | 0.00 | 0.41 | 0.41 | 86 | 1008.8 |
| 20260506173548 | 17 | 238 | 9.7 | 29.0 | 0.00 | 0.41 | 0.41 | 86 | 1008.7 |
| 20260506173116 | 17 | 209 | 14.5 | 32.2 | 0.00 | 0.41 | 0.41 | 87 | 1008.7 |
| 20260506172549 | 17 | 195 | 11.3 | 32.2 | 0.00 | 0.41 | 0.41 | 87 | 1008.7 |
| 20260506172048 | 17 | 188 | 11.3 | 22.5 | 0.00 | 0.41 | 0.41 | 88 | 1008.7 |
| 20260506171601 | 17 | 167 | 11.3 | 24.1 | 0.00 | 0.41 | 0.41 | 88 | 1008.7 |
| 20260506171047 | 17 | 192 | 11.3 | 24.1 | 0.00 | 0.41 | 0.41 | 88 | 1008.6 |
| 20260506170549 | 16 | 234 | 9.7 | 24.1 | 0.00 | 0.41 | 0.41 | 88 | 1008.8 |
| 20260506170059 | 16 | 200 | 9.7 | 24.1 | 0.00 | 0.41 | 0.41 | 88 | 1008.8 |
| 20260506165546 | 16 | 224 | 14.5 | 24.1 | 0.00 | 0.41 | 0.41 | 89 | 1008.8 |
| 20260506165046 | 16 | 251 | 9.7 | 19.3 | 0.00 | 0.41 | 0.41 | 89 | 1008.7 |
| 20260506164555 | 16 | 226 | 9.7 | 30.6 | 0.00 | 0.41 | 0.41 | 90 | 1008.7 |
| 20260506164045 | 16 | 180 | 9.7 | 30.6 | 0.00 | 0.41 | 0.41 | 90 | 1008.8 |
| 20260506163545 | 16 | 240 | 14.5 | 25.7 | 0.00 | 0.41 | 0.41 | 90 | 1009.0 |
| 20260506163055 | 16 | 195 | 16.1 | 24.1 | 0.00 | 0.41 | 0.41 | 90 | 1008.8 |
| 20260506162549 | 16 | 172 | 9.7 | 20.9 | 0.00 | 0.41 | 0.41 | 90 | 1008.8 |
| 20260506162047 | 16 | 215 | 9.7 | 25.7 | 0.00 | 0.41 | 0.41 | 90 | 1008.7 |
| 20260506161556 | 16 | 186 | 9.7 | 25.7 | 0.00 | 0.41 | 0.41 | 90 | 1008.8 |
| 20260506161048 | 16 | 212 | 16.1 | 32.2 | 0.00 | 0.41 | 0.41 | 90 | 1009.0 |
| 20260506160545 | 16 | 163 | 19.3 | 32.2 | 0.00 | 0.41 | 0.41 | 90 | 1008.8 |
| 20260506160105 | 16 | 195 | 14.5 | 25.7 | 0.03 | 0.41 | 0.41 | 90 | 1009.0 |
| 20260506155548 | 16 | 209 | 11.3 | 29.0 | 0.03 | 0.41 | 0.41 | 90 | 1009.1 |
| 20260506155048 | 16 | 188 | 19.3 | 29.0 | 0.05 | 0.41 | 0.41 | 91 | 1009.2 |
| 20260506154556 | 16 | 222 | 11.3 | 33.8 | 0.08 | 0.41 | 0.41 | 91 | 1009.0 |
| 20260506154048 | 16 | 225 | 14.5 | 33.8 | 0.10 | 0.41 | 0.41 | 91 | 1008.8 |
| 20260506153545 | 16 | 181 | 12.9 | 30.6 | 0.10 | 0.41 | 0.41 | 91 | 1008.8 |
| 20260506153055 | 16 | 200 | 16.1 | 27.4 | 0.10 | 0.41 | 0.41 | 91 | 1008.7 |
| 20260506152545 | 16 | 200 | 11.3 | 25.7 | 0.13 | 0.41 | 0.41 | 91 | 1009.2 |
| 20260506152048 | 16 | 145 | 12.9 | 25.7 | 0.13 | 0.41 | 0.41 | 91 | 1009.3 |
| 20260506151554 | 15 | 211 | 16.1 | 25.7 | 0.13 | 0.41 | 0.41 | 91 | 1009.2 |
| 20260506151045 | 15 | 180 | 12.9 | 27.4 | 0.15 | 0.41 | 0.41 | 91 | 1009.2 |
| 20260506150545 | 15 | 173 | 14.5 | 29.0 | 0.15 | 0.41 | 0.41 | 91 | 1009.3 |
| 20260506150058 | 15 | 213 | 12.9 | 29.0 | 0.13 | 0.38 | 0.38 | 91 | 1009.5 |
| 20260506145548 | 15 | 214 | 14.5 | 29.0 | 0.13 | 0.38 | 0.38 | 91 | 1009.7 |
| 20260506145048 | 15 | 209 | 12.9 | 27.4 | 0.13 | 0.36 | 0.36 | 91 | 1009.8 |
| 20260506144555 | 15 | 192 | 9.7 | 27.4 | 0.13 | 0.33 | 0.33 | 91 | 1010.0 |
| 20260506144048 | 15 | 200 | 16.1 | 30.6 | 0.10 | 0.30 | 0.30 | 91 | 1009.9 |
| 20260506143550 | 15 | 184 | 17.7 | 30.6 | 0.13 | 0.30 | 0.30 | 91 | 1009.4 |
| 20260506143055 | 15 | 156 | 17.7 | 29.0 | 0.13 | 0.30 | 0.30 | 90 | 1009.5 |
| 20260506142548 | 16 | 171 | 12.9 | 29.0 | 0.10 | 0.28 | 0.28 | 90 | 1009.4 |
| 20260506142050 | 16 | 182 | 12.9 | 29.0 | 0.13 | 0.28 | 0.28 | 90 | 1009.3 |
| 20260506141553 | 16 | 179 | 14.5 | 25.7 | 0.13 | 0.28 | 0.28 | 90 | 1009.4 |
| 20260506141048 | 16 | 186 | 14.5 | 24.1 | 0.10 | 0.25 | 0.25 | 90 | 1009.5 |
| 20260506140551 | 16 | 195 | 12.9 | 29.0 | 0.13 | 0.25 | 0.25 | 90 | 1009.5 |
| 20260506140056 | 16 | 234 | 17.7 | 29.0 | 0.13 | 0.25 | 0.25 | 90 | 1009.5 |
| 20260506135547 | 16 | 153 | 16.1 | 29.0 | 0.13 | 0.25 | 0.25 | 90 | 1009.4 |
| 20260506135047 | 16 | 182 | 16.1 | 25.7 | 0.13 | 0.23 | 0.23 | 90 | 1009.4 |
| 20260506134618 | 16 | 195 | 14.5 | 22.5 | 0.10 | 0.20 | 0.20 | 90 | 1009.7 |
| 20260506134051 | 16 | 173 | 14.5 | 24.1 | 0.13 | 0.20 | 0.20 | 90 | 1009.9 |
| 20260506133547 | 16 | 200 | 11.3 | 24.1 | 0.13 | 0.18 | 0.18 | 89 | 1010.1 |
| 20260506133052 | 16 | 195 | 11.3 | 20.9 | 0.13 | 0.18 | 0.18 | 89 | 1010.2 |
| 20260506132547 | 16 | 186 | 8.0 | 19.3 | 0.15 | 0.18 | 0.18 | 89 | 1010.1 |
| 20260506132047 | 16 | 190 | 6.4 | 22.5 | 0.13 | 0.15 | 0.15 | 88 | 1009.9 |
| 20260506131607 | 16 | 192 | 11.3 | 22.5 | 0.15 | 0.15 | 0.15 | 88 | 1009.9 |
| 20260506131048 | 16 | 169 | 12.9 | 22.5 | 0.15 | 0.15 | 0.15 | 88 | 1009.9 |
| 20260506130547 | 16 | 222 | 8.0 | 19.3 | 0.13 | 0.13 | 0.13 | 87 | 1010.1 |
| 20260506130057 | 16 | 188 | 8.0 | 19.3 | 0.13 | 0.13 | 0.13 | 87 | 1009.9 |
| 20260506125548 | 16 | 188 | 8.0 | 16.1 | 0.13 | 0.13 | 0.13 | 86 | 1009.8 |
| 20260506125048 | 16 | 171 | 9.7 | 19.3 | 0.10 | 0.10 | 0.10 | 86 | 1009.8 |
| 20260506124557 | 16 | 179 | 6.4 | 19.3 | 0.10 | 0.10 | 0.10 | 85 | 1009.7 |
| 20260506124048 | 16 | 171 | 6.4 | 19.3 | 0.08 | 0.08 | 0.08 | 85 | 1009.7 |
| 20260506123548 | 16 | 182 | 8.0 | 19.3 | 0.05 | 0.05 | 0.05 | 84 | 1009.8 |
| 20260506123056 | 16 | 217 | 9.7 | 17.7 | 0.05 | 0.05 | 0.05 | 83 | 1009.8 |
| 20260506122548 | 16 | 191 | 8.0 | 16.1 | 0.03 | 0.03 | 0.03 | 82 | 1009.9 |
| 20260506122048 | 17 | 200 | 6.4 | 17.7 | 0.03 | 0.03 | 0.03 | 81 | 1009.9 |
| 20260506121605 | 17 | 192 | 8.0 | 22.5 | 0.00 | 0.00 | 0.00 | 80 | 1010.0 |
| 20260506121045 | 17 | 217 | 8.0 | 22.5 | 0.00 | 0.00 | 0.00 | 80 | 1010.0 |
| 20260506120545 | 17 | 205 | 8.0 | 27.4 | 0.00 | 0.00 | 0.00 | 79 | 1010.1 |
| 20260506120051 | 17 | 169 | 11.3 | 27.4 | 0.00 | 0.00 | 0.00 | 78 | 1010.2 |
| 20260506115546 | 17 | 217 | 11.3 | 27.4 | 0.00 | 0.00 | 0.00 | 77 | 1010.2 |
| 20260506115048 | 17 | 214 | 9.7 | 25.7 | 0.00 | 0.00 | 0.00 | 77 | 1010.2 |
| 20260506114553 | 17 | 188 | 8.0 | 20.9 | 0.00 | 0.00 | 0.00 | 76 | 1010.2 |
| 20260506114048 | 17 | 195 | 11.3 | 29.0 | 0.00 | 0.00 | 0.00 | 76 | 1010.1 |
| 20260506113546 | 17 | 195 | 9.7 | 29.0 | 0.00 | 0.00 | 0.00 | 75 | 1010.0 |
| 20260506113050 | 17 | 213 | 9.7 | 24.1 | 0.00 | 0.00 | 0.00 | 75 | 1009.9 |
| 20260506112547 | 17 | 205 | 12.9 | 24.1 | 0.00 | 0.00 | 0.00 | 75 | 1009.8 |
| 20260506112047 | 17 | 209 | 8.0 | 24.1 | 0.00 | 0.00 | 0.00 | 75 | 1009.6 |
| 20260506111610 | 17 | 178 | 9.7 | 24.1 | 0.00 | 0.00 | 0.00 | 75 | 1009.8 |